User: anonymous   Login
Location: Unspecified
(0.0000°N, 0.0000°E)
Time: 00:02:10
(UTC+00:00)
Language:

Cosmos 1743 - Orbit

View from above orbital plane
View from above orbital plane
View from above satellite
View from above satellite

Ground track
Ground track

The orbit data is extracted from the following two-line orbital elements,

1 16719U 86034A   18203.44677927 +.00000025 +00000-0 -37022-6 0  9993
2 16719 082.5538 319.8067 0011603 347.0425 058.6662 15.15209039756025
Epoch (UTC): 22 July 2018 10:43:21
Eccentricity: 0.0011603
inclination: 82.5538°
perigee height: 512 km
apogee height: 528 km
right ascension of ascending node: 319.8067°
argument of perigee: 347.0425°
revolutions per day: 15.15209039
mean anomaly at epoch: 58.6662°
orbit number at epoch: 75602

The dashed part of the orbit path shows where the satellite is in the earth's shadow,  

DLR